EW6320 Weather Reports


time (UTC)temp
C
wind
direction
speed
KPH
gust
KPH
rain 1hr
cm
rain 24hr
cm
rain mn
cm
humidity
%
barometer
mb
20260504151044 22 274 4.8 16.1 0.00 0.23 0.23 59 1008.1
20260504150759 22 189 4.8 16.1 0.00 0.23 0.23 61 1008.1
20260504150257 21 285 6.4 16.1 0.00 0.23 0.23 61 1008.1
20260504141016 20 202 3.2 12.9 0.00 0.23 0.23 64 1008.2
20260504140516 20 248 3.2 11.3 0.00 0.23 0.23 64 1008.2
20260504140245 20 155 3.2 16.1 0.00 0.23 0.23 65 1008.3
20260504130729 17 141 3.2 12.9 0.00 0.23 0.23 71 1008.7
20260504120213 15 161 4.8 12.9 0.00 0.23 0.23 76 1009.0
20260504110446 14 165 3.2 8.0 0.00 0.23 0.23 80 1008.9
20260504110206 14 151 3.2 11.3 0.00 0.23 0.23 81 1008.9
20260504100431 13 117 1.6 4.8 0.00 0.23 0.23 88 1009.0
20260504100154 13 137 1.6 4.8 0.00 0.23 0.23 88 1009.2
20260504090134 14 138 1.6 4.8 0.00 0.23 0.23 81 1009.1
20260504081851 13 152 3.2 6.4 0.00 0.23 0.23 87 1009.3
20260504081352 13 157 1.6 4.8 0.00 0.23 0.23 88 1009.4
20260504080851 13 137 0.0 3.2 0.00 0.23 0.23 88 1009.6
20260504080351 13 109 0.0 3.2 0.00 0.23 0.23 88 1009.9
20260504070337 15 134 3.2 14.5 0.23 0.23 0.23 75 1009.7
20260504050745 17 149 1.6 9.7 0.00 0.00 0.00 64 1008.5
20260504050248 16 175 1.6 11.3 0.00 0.00 0.00 63 1008.6
20260504050003 16 140 1.6 11.3 0.00 0.00 0.00 63 1008.8
20260504045242 16 215 3.2 12.9 0.00 0.00 0.00 63 1008.9
20260504044738 16 188 3.2 12.9 0.00 0.00 0.00 63 1008.9
20260504044237 16 181 3.2 12.9 0.00 0.00 0.00 63 1009.0
20260504043737 16 150 1.6 12.9 0.00 0.00 0.00 62 1009.1
20260504043233 16 174 3.2 12.9 0.00 0.00 0.00 62 1009.2
20260504042731 16 198 3.2 12.9 0.00 0.00 0.00 62 1009.3
20260504042231 16 153 3.2 11.3 0.00 0.00 0.00 62 1009.4
20260504041727 16 281 3.2 11.3 0.00 0.00 0.00 61 1009.4
20260504041225 16 210 3.2 14.5 0.00 0.00 0.00 60 1009.4
20260504040724 16 170 3.2 14.5 0.00 0.00 0.00 60 1009.5
20260504040442 16 185 3.2 11.3 0.00 0.00 0.00 60 1009.6
20260504035719 16 196 3.2 14.5 0.00 0.00 0.00 59 1009.7
20260504035223 16 279 3.2 14.5 0.00 0.00 0.00 59 1009.7
20260504034717 16 168 3.2 12.9 0.00 0.00 0.00 59 1009.7
20260504034217 17 182 4.8 17.7 0.00 0.00 0.00 59 1009.6
20260504033711 17 198 3.2 17.7 0.00 0.00 0.00 59 1009.7
20260504033211 17 180 3.2 12.9 0.00 0.00 0.00 59 1009.6
20260504032710 17 166 4.8 12.9 0.00 0.00 0.00 58 1009.7
20260504032205 17 160 4.8 14.5 0.00 0.00 0.00 58 1009.6
20260504031705 17 145 6.4 17.7 0.00 0.00 0.00 57 1009.5
20260504031426 17 157 4.8 17.7 0.00 0.00 0.00 57 1009.6
20260504031147 17 161 4.8 16.1 0.00 0.00 0.00 57 1009.6
20260504030159 17 134 4.8 16.1 0.00 0.00 0.00 57 1009.7
20260504025659 17 156 6.4 14.5 0.00 0.00 0.00 56 1009.7
20260504025413 17 186 4.8 14.5 0.00 0.00 0.00 56 1009.8
20260504024913 17 169 4.8 12.9 0.00 0.00 0.00 56 1009.8
20260504024153 17 155 4.8 12.9 0.00 0.00 0.00 56 1009.8
20260504023647 17 180 4.8 17.7 0.00 0.00 0.00 55 1009.9
20260504023147 17 161 6.4 17.7 0.00 0.00 0.00 55 1009.9
20260504022905 17 143 8.0 17.7 0.00 0.00 0.00 55 1010.0
20260504022141 17 173 8.0 17.7 0.00 0.00 0.00 55 1009.9
20260504021640 17 90 6.4 16.1 0.00 0.00 0.00 54 1010.0
20260504021141 17 105 6.4 16.1 0.00 0.00 0.00 54 1009.9
20260504020639 17 165 6.4 24.1 0.00 0.00 0.00 54 1009.8
20260504020139 17 145 6.4 24.1 0.00 0.00 0.00 54 1009.8
20260504015639 17 198 6.4 19.3 0.00 0.00 0.00 54 1009.6
20260504015139 17 148 6.4 19.3 0.00 0.00 0.00 54 1009.7
20260504014633 17 211 6.4 19.3 0.00 0.00 0.00 53 1009.7
20260504014352 18 155 6.4 19.3 0.00 0.00 0.00 53 1009.6
20260504013632 18 180 6.4 19.3 0.00 0.00 0.00 53 1009.5
20260504013351 18 174 6.4 19.3 0.00 0.00 0.00 53 1009.6
20260504012630 18 158 8.0 19.3 0.00 0.00 0.00 53 1009.6
20260504012134 18 172 8.0 19.3 0.00 0.00 0.00 52 1009.7
20260504011630 18 149 6.4 16.1 0.00 0.00 0.00 53 1009.6
20260504011131 18 163 4.8 14.5 0.00 0.00 0.00 53 1009.7
20260504010631 18 163 4.8 14.5 0.00 0.00 0.00 52 1009.8
20260504010130 18 140 4.8 12.9 0.00 0.00 0.00 52 1009.8
20260504005632 18 161 4.8 12.9 0.00 0.00 0.00 52 1009.9
20260504005129 18 140 6.4 12.9 0.00 0.00 0.00 51 1009.8
20260504004849 18 150 8.0 19.3 0.00 0.00 0.00 51 1009.9
20260504004129 18 178 6.4 19.3 0.00 0.00 0.00 51 1009.8
20260504003629 18 157 6.4 17.7 0.00 0.00 0.00 50 1010.1
20260504003130 18 149 6.4 17.7 0.00 0.00 0.00 51 1010.0
20260504002622 19 150 6.4 17.7 0.00 0.00 0.00 50 1009.9
20260504002124 19 148 6.4 19.3 0.00 0.00 0.00 50 1010.0
20260504001616 19 139 6.4 19.3 0.00 0.00 0.00 49 1010.2
20260504001120 19 161 6.4 22.5 0.00 0.00 0.00 49 1010.2
20260504000613 20 155 6.4 22.5 0.00 0.00 0.00 48 1010.4
20260504000340 20 169 6.4 19.3 0.00 0.00 0.00 48 1010.4
20260503235610 20 160 8.0 19.3 0.00 0.00 0.00 48 1010.4
20260503235109 20 146 8.0 24.1 0.00 0.00 0.00 48 1010.4
20260503234609 20 161 8.0 24.1 0.00 0.00 0.00 48 1010.4
20260503234105 20 101 8.0 24.1 0.00 0.00 0.00 47 1010.5
20260503233605 20 113 4.8 24.1 0.00 0.00 0.00 47 1010.5
20260503233059 20 159 4.8 22.5 0.00 0.00 0.00 48 1010.5
20260503232601 20 156 6.4 24.1 0.00 0.00 0.00 47 1010.5
20260503232101 20 195 8.0 24.1 0.00 0.00 0.00 47 1010.6
20260503231601 20 161 4.8 19.3 0.00 0.00 0.00 47 1010.6
20260503231057 20 302 4.8 17.7 0.00 0.00 0.00 47 1010.6
20260503230558 20 192 6.4 20.9 0.00 0.00 0.00 46 1010.6
20260503230051 20 196 6.4 20.9 0.00 0.00 0.00 45 1010.8
20260503225816 20 163 8.0 20.9 0.00 0.00 0.00 45 1010.7
20260503225053 21 150 8.0 20.9 0.00 0.00 0.00 46 1010.7
20260503224554 20 267 6.4 29.0 0.00 0.00 0.00 45 1010.6
20260503224314 20 121 8.0 29.0 0.00 0.00 0.00 45 1010.6
20260503223549 20 163 9.7 29.0 0.00 0.00 0.00 45 1010.6
20260503223050 20 292 8.0 29.0 0.00 0.00 0.00 45 1010.6
20260503222548 21 142 6.4 24.1 0.00 0.00 0.00 45 1010.5
20260503222044 20 159 8.0 24.1 0.00 0.00 0.00 46 1010.5
20260503221544 20 171 9.7 24.1 0.00 0.00 0.00 46 1010.5
20260503221518 20 186 11.3 24.1 0.00 0.00 0.00 45 1010.6
20260503220536 20 174 11.3 29.0 0.00 0.00 0.00 45 1010.6
20260503220030 20 185 9.7 29.0 0.00 0.00 0.00 44 1010.7
20260503215530 20 250 8.0 19.3 0.00 0.00 0.00 44 1010.8
20260503215031 20 134 9.7 25.7 0.00 0.00 0.00 44 1010.8
20260503214801 20 178 9.7 25.7 0.00 0.00 0.00 45 1010.9
20260503214025 20 188 8.0 25.7 0.00 0.00 0.00 44 1011.0
20260503213522 21 327 8.0 19.3 0.00 0.00 0.00 45 1011.1
20260503213235 20 117 8.0 22.5 0.00 0.00 0.00 45 1011.1
20260503212516 20 148 8.0 22.5 0.00 0.00 0.00 46 1011.2
20260503212012 20 155 6.4 20.9 0.00 0.00 0.00 44 1011.2
20260503211516 20 120 9.7 30.6 0.00 0.00 0.00 45 1011.3
20260503211010 20 194 11.3 30.6 0.00 0.00 0.00 45 1011.3
20260503210508 20 167 11.3 29.0 0.00 0.00 0.00 46 1011.5
20260503210005 20 188 11.3 25.7 0.00 0.00 0.00 45 1011.5
20260503205502 20 152 9.7 24.1 0.00 0.00 0.00 47 1011.8
20260503205450 20 213 8.0 24.1 0.00 0.00 0.00 44 1011.9
20260503204722 20 123 8.0 22.5 0.00 0.00 0.00 46 1012.0
20260503204217 20 150 8.0 22.5 0.00 0.00 0.00 46 1012.2
20260503203455 20 224 6.4 25.7 0.00 0.00 0.00 46 1012.3
20260503203211 20 180 6.4 27.4 0.00 0.00 0.00 46 1012.5
20260503202448 20 146 8.0 27.4 0.00 0.00 0.00 44 1012.5
20260503201943 20 144 9.7 27.4 0.00 0.00 0.00 45 1012.6
20260503201441 20 103 9.7 27.4 0.00 0.00 0.00 43 1012.6
20260503200938 20 169 9.7 22.5 0.00 0.00 0.00 45 1012.8
20260503200438 20 166 9.7 27.4 0.00 0.00 0.00 44 1012.8
20260503195932 20 185 11.3 29.0 0.00 0.00 0.00 44 1013.0
20260503195432 20 140 9.7 29.0 0.00 0.00 0.00 46 1013.2
20260503195157 20 238 9.7 29.0 0.00 0.00 0.00 46 1013.2
20260503194426 20 150 11.3 30.6 0.00 0.00 0.00 47 1013.2
20260503193927 20 138 9.7 30.6 0.00 0.00 0.00 45 1013.4
20260503193426 20 256 9.7 24.1 0.00 0.00 0.00 49 1013.7
20260503192920 19 177 11.3 27.4 0.00 0.00 0.00 49 1014.3
20260503192420 19 142 8.0 27.4 0.00 0.00 0.00 49 1014.2
20260503191920 19 265 9.7 25.7 0.00 0.00 0.00 46 1014.4
20260503191414 19 185 9.7 25.7 0.00 0.00 0.00 49 1014.5
20260503190914 19 294 6.4 25.7 0.00 0.00 0.00 46 1014.7
20260503190636 19 252 8.0 20.9 0.00 0.00 0.00 46 1014.9
20260503185908 19 208 9.7 22.5 0.00 0.00 0.00 49 1014.9
20260503185409 19 255 9.7 22.5 0.00 0.00 0.00 48 1015.0
20260503184908 19 257 11.3 27.4 0.00 0.00 0.00 49 1014.9
20260503184401 18 186 11.3 27.4 0.00 0.00 0.00 46 1015.0
20260503183902 19 157 8.0 22.5 0.00 0.00 0.00 48 1015.0
20260503183626 19 238 8.0 27.4 0.00 0.00 0.00 49 1015.1
20260503182856 19 233 8.0 27.4 0.00 0.00 0.00 50 1015.3
20260503182356 18 237 11.3 29.0 0.00 0.00 0.00 48 1015.5
20260503181855 18 183 11.3 29.0 0.00 0.00 0.00 48 1015.6
20260503181350 18 163 9.7 25.7 0.00 0.00 0.00 48 1015.8
20260503180850 18 178 8.0 24.1 0.00 0.00 0.00 49 1016.0
20260503180349 18 177 8.0 24.1 0.00 0.00 0.00 50 1016.1
20260503175844 18 255 9.7 24.1 0.00 0.00 0.00 49 1016.3
20260503175344 18 188 9.7 29.0 0.00 0.00 0.00 50 1016.4
20260503174844 18 254 9.7 29.0 0.00 0.00 0.00 51 1016.7
20260503174338 17 142 9.7 30.6 0.00 0.00 0.00 50 1016.7
20260503173838 18 252 8.0 30.6 0.00 0.00 0.00 50 1017.0
20260503173337 18 218 8.0 24.1 0.00 0.00 0.00 50 1017.1
20260503172832 18 270 6.4 24.1 0.00 0.00 0.00 54 1017.1
20260503172332 18 230 9.7 25.7 0.00 0.00 0.00 52 1017.2
20260503171832 17 224 9.7 25.7 0.00 0.00 0.00 53 1017.4
20260503171326 17 180 9.7 22.5 0.00 0.00 0.00 52 1017.5
20260503170826 17 267 9.7 22.5 0.00 0.00 0.00 52 1017.5
20260503170326 17 175 8.0 22.5 0.00 0.00 0.00 53 1017.5